TimeCST,TemperatureF,Dew PointF,Humidity,Sea Level PressureIn,VisibilityMPH,Wind Direction,Wind SpeedMPH,Gust SpeedMPH,PrecipitationIn,Events,Conditions,WindDirDegrees,DateUTC
12:03 AM,21.9,17.1,82,30.20,4.0,NNE,9.2,-,0.00,Snow,Light Snow,20,2013-01-01 06:03:00
12:45 AM,19.9,16.0,85,30.20,8.0,NNE,6.9,-,0.01,,Overcast,20,2013-01-01 06:45:00
12:53 AM,19.9,16.0,85,30.23,7.0,North,6.9,-,0.01,,Overcast,10,2013-01-01 06:53:00
1:39 AM,21.0,16.0,81,30.21,10.0,NNE,9.2,-,N/A,,Overcast,20,2013-01-01 07:39:00
1:53 AM,19.9,15.1,81,30.25,10.0,North,9.2,-,N/A,,Overcast,10,2013-01-01 07:53:00
2:53 AM,19.9,15.1,81,30.27,10.0,NNE,8.1,-,N/A,,Overcast,30,2013-01-01 08:53:00
3:53 AM,19.9,12.9,74,30.25,10.0,North,11.5,-,N/A,,Overcast,10,2013-01-01 09:53:00
4:53 AM,18.0,12.0,78,30.25,10.0,North,8.1,-,N/A,,Overcast,360,2013-01-01 10:53:00
5:15 AM,17.1,10.9,77,30.22,10.0,North,8.1,-,N/A,,Scattered Clouds,10,2013-01-01 11:15:00
5:53 AM,14.0,9.0,80,30.28,10.0,North,6.9,-,N/A,,Clear,10,2013-01-01 11:53:00
6:53 AM,12.2,8.6,85,30.27,10.0,NNW,4.6,-,N/A,,Scattered Clouds,340,2013-01-01 12:53:00
7:53 AM,14.0,8.1,77,30.34,10.0,Calm,Calm,-,N/A,,Mostly Cloudy,0,2013-01-01 13:53:00
8:53 AM,14.0,8.1,77,30.35,10.0,North,6.9,-,N/A,,Overcast,360,2013-01-01 14:53:00
9:53 AM,16.0,8.1,71,30.37,10.0,NNW,4.6,-,N/A,,Overcast,340,2013-01-01 15:53:00
10:53 AM,19.0,8.1,62,30.37,10.0,NNW,3.5,-,N/A,,Clear,340,2013-01-01 16:53:00
11:53 AM,21.0,9.0,60,30.35,10.0,NW,3.5,-,N/A,,Mostly Cloudy,320,2013-01-01 17:53:00
12:53 PM,21.9,10.9,63,30.34,10.0,WNW,4.6,-,N/A,,Overcast,290,2013-01-01 18:53:00
1:53 PM,23.0,10.0,58,30.33,10.0,WNW,5.8,-,N/A,,Overcast,290,2013-01-01 19:53:00
2:53 PM,25.0,8.1,49,30.32,10.0,WNW,6.9,-,N/A,,Clear,290,2013-01-01 20:53:00
3:53 PM,23.0,9.0,55,30.32,10.0,WSW,4.6,-,N/A,,Clear,250,2013-01-01 21:53:00
4:53 PM,21.0,7.0,55,30.32,10.0,WSW,4.6,-,N/A,,Clear,250,2013-01-01 22:53:00
5:53 PM,18.0,7.0,62,30.32,10.0,West,5.8,-,N/A,,Clear,270,2013-01-01 23:53:00
6:53 PM,18.0,7.0,62,30.31,10.0,West,3.5,-,N/A,,Clear,260,2013-01-02 00:53:00
7:53 PM,10.0,5.0,80,30.32,10.0,Calm,Calm,-,N/A,,Clear,0,2013-01-02 01:53:00
8:53 PM,15.1,7.0,70,30.30,10.0,SSW,3.5,-,N/A,,Clear,200,2013-01-02 02:53:00
9:53 PM,16.0,6.1,65,30.31,10.0,SSW,4.6,-,N/A,,Clear,210,2013-01-02 03:53:00
10:53 PM,12.9,6.1,74,30.31,10.0,SSW,4.6,-,N/A,,Clear,210,2013-01-02 04:53:00
11:53 PM,9.0,5.0,84,30.29,10.0,Calm,Calm,-,N/A,,Clear,0,2013-01-02 05:53:00